Regional Weather Roundup
Issued by NWS

Home | Current Version | Previous Version | Graphics & Text | Print | Product List | Glossary On
Versions: 1 2 3 4 5 6 7 8 9 10 11 12 13 14 15 16 17 18 19 20 21 22 23 24 25 26 27 28 29 30 31 32 33 34 35 36 37 38 39 40 41 42 43 44 45 46 47 48 49 50
000
ASUS43 KTOP 251659
RWRKS

WEATHER ROUNDUP FOR KANSAS
NATIONAL WEATHER SERVICE GOODLAND KS
1200 PM CDT SUN SEP 25 2016

NOTE:  "FAIR" INDICATES FEW OR NO CLOUDS BELOW 12,000 FEET WITH NO
SIGNIFICANT WEATHER AND/OR OBSTRUCTIONS TO VISIBILITY.

KSZ001>006-013>018-027>032-041>047-251800-
NORTHWEST KANSAS

CITY           SKY/WX    TMP DP  RH WIND       PRES   REMARKS
GOODLAND       SUNNY     64  34  32 N23G31    30.38S
HAYS           SUNNY     70  43  37 N18G25    30.29S
HILL CITY      SUNNY     67  45  45 N16G24    30.31F
RUSSELL        SUNNY     68  46  45 N22G28    30.26S
$$

KSZ061>065-074>080-084>089-251800-
SOUTHWEST KANSAS

CITY           SKY/WX    TMP DP  RH WIND       PRES   REMARKS
DODGE CITY     SUNNY     69  43  38 N20G29    30.29S
ELKHART          N/A     65  36  34 N21         N/A
GARDEN CITY    SUNNY     68  39  34 N21G29    30.33S
GREAT BEND     SUNNY     66  45  45 N20G26    30.28R
LIBERAL        SUNNY     70  43  37 N26       30.33S
$$

KSZ066>073-081>083-090>101-251800-
SOUTHEAST KANSAS

CITY           SKY/WX    TMP DP  RH WIND       PRES   REMARKS
CHANUTE        CLOUDY    71  68  90 NW7       30.13R
COFFEYVILLE    CLOUDY    73  68  84 N9        30.11S
HUTCHINSON     CLOUDY    64  48  56 N12G22    30.24R
MEDICINE LODGE   N/A     63  48  58 N18G25      N/A
NEWTON         CLOUDY   N/A N/A N/A N18       30.22S
PARSONS        CLOUDY    72  68  87 N10       30.13R
WICHITA INTL   CLOUDY    65  51  60 N21G31    30.20S
WICHITA JABRA  CLOUDY    64  53  67 N22G28    30.20S
WICHITA MCCONL CLOUDY    63  52  67 N18       30.20S
WINFIELD       CLOUDY    60  57  89 N16       30.20S
$$

KSZ007>012-019>026-033>040-048>060-102>105-251800-
NORTHEAST KANSAS

CITY           SKY/WX    TMP DP  RH WIND       PRES   REMARKS
CONCORDIA      CLOUDY    63  49  60 N10       30.23S
EMPORIA        LGT RAIN  60  55  83 N8        30.19R
LAWRENCE       CLOUDY    61  56  83 NW8       30.17S
MANHATTAN      CLOUDY    66  50  56 N7        30.20S
OLATHE IND     LGT RAIN  61  58  90 N20G29    30.17R
OLATHE EXE     RAIN      64  63  96 N15       30.14R FOG
SALINA         MOSUNNY   67  51  56 N17       30.24S
TOPEKA BILLARD CLOUDY    62  56  80 N6        30.18F
TOPEKA FORBES  CLOUDY    62  56  80 N7        30.18S
$$




USA.gov is the U.S. government's official web portal to all federal, state and local government web resources and services.